Location: DARK SKY Beskydy - Park tmavé oblohy, www.darkskybeskydy.cz
(49.4926°N, 18.5016°E)
Time: 15:39:56
(UTC+02:00)

ACS3 Solar Sail - Pass Details

Date: 26 June 2024
Orbit: 992 x 1023 km, 97.4° (Epoch: 11 July)

Event Time Altitude Azimuth Distance (km) Brightness Sun altitude
Exits shadow 23:49:30 - 221° (SW) 3,472 7.4 -16.0°
Reaches altitude 10° 23:52:14 10° 238° (WSW) 2,758 7.0 -16.1°
Maximum altitude 23:56:03 17° 276° (W) 2,306 7.0 -16.2°
Drops below altitude 10° 23:59:52 10° 315° (NW) 2,765 8.0 -16.4°
Sets 00:03:26 0° 335° (NNW) 3,719 9.4 -16.5°
